Weather History for Hazen, ND

Change the Weather History Date:

Thursday, November 14, 2013

  Actual Average (KN60) Record (KN60)
Temperature  
Mean Temperature 32 °F -  
Max Temperature 46 °F 35 °F 62 °F (2001)
Min Temperature 19 °F 17 °F -2 °F (2000)
Degree Days  
Heating Degree Days 32    
Moisture  
Dew Point 28 °F    
Average Humidity 80    
Maximum Humidity 100    
Minimum Humidity 53    
Precipitation  
Precipitation 0.00 in - - ()
Sea Level Pressure  
Sea Level Pressure 29.83 in    
Wind  
Wind Speed 8 mph (WSW)    
Max Wind Speed 15 mph    
Max Gust Speed 20 mph    
Visibility 10 miles    
Events      
Averages and records for this station are not official NWS values.
T = Trace of Precipitation, MM = Missing Value Source: NWS Daily Summary

Daily Weather History Graph

Daily Weather History Graph

Search for Another Location

Airport:

Trip Planner

Search our weather history database for the weather conditions in past years. The results will help you decide how hot, cold, wet, or windy it might be!

Date:

Astronomy

Nov. 14, 2013 Rise Set
Actual Time 7:49 AM CST 5:11 PM CST
Civil Twilight 7:16 AM CST 5:44 PM CST
Nautical Twilight 6:39 AM CST 6:21 PM CST
Astronomical Twilight 6:02 AM CST 6:58 PM CST
Moon 3:43 PM CST (11/14) 4:35 AM CST (11/14)
Length of Visible Light 10h 28m
Length of Day
9h 22m
Waxing Gibbous, 92% of the Moon is Illuminated
Nov 14
Waxing Gibbous
Nov 17
Full
Nov 25
Last Quarter
Dec 2
New
Dec 9
First Quarter

Hourly Weather History & Observations

Time (CST) Temp. Windchill Dew Point Humidity Pressure Visibility Wind Dir Wind Speed Gust Speed Precip Events Conditions
12:15 AM 35.6 °F 29.9 °F 32.0 °F 87% 29.86 in 10.0 mi SW 6.9 mph - N/A   Partly Cloudy
12:35 AM 33.8 °F 27.7 °F 30.2 °F 87% 29.86 in 10.0 mi West 6.9 mph - N/A   Mostly Cloudy
12:55 AM 33.8 °F 27.0 °F 32.0 °F 93% 29.86 in 10.0 mi West 8.1 mph - N/A   Overcast
1:15 AM 33.8 °F 27.0 °F 32.0 °F 93% 29.85 in 10.0 mi SW 8.1 mph - N/A   Mostly Cloudy
1:35 AM 33.8 °F 26.4 °F 32.0 °F 93% 29.84 in 10.0 mi WSW 9.2 mph - N/A   Mostly Cloudy
1:55 AM 35.6 °F 28.0 °F 32.0 °F 87% 29.84 in 10.0 mi WSW 10.4 mph - N/A   Mostly Cloudy
2:15 AM 33.8 °F 25.3 °F 32.0 °F 93% 29.85 in 10.0 mi WSW 11.5 mph - N/A   Mostly Cloudy
2:35 AM 33.8 °F 25.3 °F 32.0 °F 93% 29.85 in 10.0 mi WSW 11.5 mph - N/A   Mostly Cloudy
2:55 AM 32.0 °F 23.6 °F 30.2 °F 93% 29.87 in 10.0 mi WSW 10.4 mph - N/A   Partly Cloudy
3:15 AM 33.8 °F 25.8 °F 32.0 °F 93% 29.88 in 10.0 mi WNW 10.4 mph - N/A   Partly Cloudy
3:35 AM 37.4 °F 31.4 °F 33.8 °F 87% 29.89 in 10.0 mi NW 8.1 mph - N/A   Mostly Cloudy
3:55 AM 39.2 °F 35.9 °F 33.8 °F 81% 29.88 in 10.0 mi WSW 4.6 mph - N/A   Overcast
4:15 AM 37.4 °F 32.1 °F 32.0 °F 81% 29.89 in 10.0 mi SW 6.9 mph - N/A   Overcast
4:35 AM 37.4 °F 33.8 °F 33.8 °F 87% 29.89 in 10.0 mi West 4.6 mph - N/A   Overcast
4:55 AM 35.6 °F 29.2 °F 32.0 °F 87% 29.89 in 10.0 mi WSW 8.1 mph - N/A   Overcast
5:15 AM 35.6 °F 29.2 °F 32.0 °F 87% 29.89 in 10.0 mi West 8.1 mph - N/A   Overcast
5:35 AM 35.6 °F 29.2 °F 32.0 °F 87% 29.89 in 10.0 mi West 8.1 mph - N/A   Overcast
5:55 AM 35.6 °F 29.2 °F 32.0 °F 87% 29.89 in 10.0 mi WSW 8.1 mph - N/A   Overcast
6:15 AM 32.0 °F 25.6 °F 32.0 °F 100% 29.89 in 10.0 mi West 6.9 mph - N/A   Overcast
6:35 AM 32.0 °F 26.4 °F 30.2 °F 93% 29.89 in 10.0 mi West 5.8 mph - N/A   Overcast
6:55 AM 30.2 °F 23.4 °F 28.4 °F 93% 29.89 in 10.0 mi West 6.9 mph - N/A   Scattered Clouds
7:15 AM 28.4 °F 21.2 °F 26.6 °F 93% 29.88 in 10.0 mi WSW 6.9 mph - N/A   Partly Cloudy
7:35 AM 28.4 °F 21.2 °F 26.6 °F 93% 29.89 in 10.0 mi WSW 6.9 mph - N/A   Partly Cloudy
7:55 AM 28.4 °F 22.2 °F 28.4 °F 100% 29.88 in 10.0 mi SW 5.8 mph - N/A   Mostly Cloudy
8:15 AM 28.4 °F 21.2 °F 26.6 °F 93% 29.88 in 10.0 mi South 6.9 mph - N/A   Partly Cloudy
8:35 AM 30.2 °F 26.7 °F 28.4 °F 93% 29.89 in 10.0 mi SSW 3.5 mph - N/A   Clear
8:55 AM 32.0 °F 25.6 °F 30.2 °F 93% 29.89 in 10.0 mi SSW 6.9 mph - N/A   Clear
9:15 AM 35.6 °F 28.6 °F 32.0 °F 87% 29.88 in 10.0 mi SSW 9.2 mph - N/A   Clear
9:35 AM 35.6 °F 29.2 °F 32.0 °F 87% 29.88 in 10.0 mi SW 8.1 mph - N/A   Clear
9:55 AM 37.4 °F 29.3 °F 32.0 °F 81% 29.87 in 10.0 mi WSW 12.7 mph 16.1 mph N/A   Clear
10:15 AM 37.4 °F 29.8 °F 32.0 °F 81% 29.86 in 10.0 mi WSW 11.5 mph - N/A   Clear
10:35 AM 39.2 °F 33.6 °F 32.0 °F 75% 29.86 in 10.0 mi West 8.1 mph - N/A   Clear
10:55 AM 41.0 °F 33.1 °F 32.0 °F 70% 29.86 in 10.0 mi West 15.0 mph 19.6 mph N/A   Clear
11:15 AM 41.0 °F 33.9 °F 32.0 °F 70% 29.85 in 10.0 mi WSW 12.7 mph 17.3 mph N/A   Clear
11:35 AM 39.2 °F 32.5 °F 32.0 °F 75% 29.85 in 10.0 mi West 10.4 mph - N/A   Clear
11:55 AM 41.0 °F 35.2 °F 32.0 °F 70% 29.84 in 10.0 mi West 9.2 mph - N/A   Scattered Clouds
12:15 PM 41.0 °F 34.7 °F 32.0 °F 70% 29.83 in 10.0 mi West 10.4 mph 16.1 mph N/A   Partly Cloudy
12:35 PM 42.8 °F 36.2 °F 32.0 °F 66% 29.82 in 10.0 mi West 12.7 mph - N/A   Clear
12:55 PM 44.6 °F 38.8 °F 32.0 °F 61% 29.81 in 10.0 mi WSW 11.5 mph - N/A   Clear
1:15 PM 44.6 °F 39.7 °F 32.0 °F 61% 29.80 in 10.0 mi West 9.2 mph - N/A   Clear
1:35 PM 44.6 °F 38.8 °F 32.0 °F 61% 29.79 in 10.0 mi WSW 11.5 mph - N/A   Clear
1:55 PM 44.6 °F 38.4 °F 32.0 °F 61% 29.77 in 10.0 mi WSW 12.7 mph - N/A   Clear
2:15 PM 44.6 °F 39.2 °F 30.2 °F 57% 29.76 in 10.0 mi WSW 10.4 mph - N/A   Partly Cloudy
2:35 PM 46.4 °F 41.5 °F 30.2 °F 53% 29.77 in 10.0 mi WNW 10.4 mph - N/A   Partly Cloudy
2:55 PM 46.4 °F 41.9 °F 30.2 °F 53% 29.77 in 10.0 mi West 9.2 mph 18.4 mph N/A   Clear
3:15 PM 46.4 °F 41.1 °F 30.2 °F 53% 29.77 in 10.0 mi West 11.5 mph 16.1 mph N/A   Partly Cloudy
3:35 PM 46.4 °F 41.1 °F 30.2 °F 53% 29.77 in 10.0 mi West 11.5 mph - N/A   Clear
3:55 PM 46.4 °F 41.5 °F 30.2 °F 53% 29.77 in 10.0 mi West 10.4 mph - N/A   Clear
4:15 PM 44.6 °F 40.7 °F 30.2 °F 57% 29.78 in 10.0 mi West 6.9 mph - N/A   Partly Cloudy
4:35 PM 44.6 °F 41.4 °F 28.4 °F 53% 29.78 in 10.0 mi West 5.8 mph - N/A   Partly Cloudy
4:55 PM 42.8 °F 38.6 °F 28.4 °F 57% 29.78 in 10.0 mi West 6.9 mph - N/A   Mostly Cloudy
5:15 PM 39.2 °F 34.2 °F 28.4 °F 65% 29.77 in 10.0 mi WSW 6.9 mph - N/A   Partly Cloudy
5:35 PM 35.6 °F 28.6 °F 26.6 °F 70% 29.77 in 10.0 mi WSW 9.2 mph - N/A   Clear
5:55 PM 37.4 °F 30.8 °F 28.4 °F 70% 29.77 in 10.0 mi SW 9.2 mph - N/A   Partly Cloudy
6:15 PM 37.4 °F 30.8 °F 28.4 °F 70% 29.77 in 10.0 mi SW 9.2 mph - N/A   Partly Cloudy
6:35 PM 32.0 °F 26.4 °F 26.6 °F 80% 29.77 in 10.0 mi WSW 5.8 mph - N/A   Clear
6:55 PM 32.0 °F - 26.6 °F 80% 29.78 in 10.0 mi Calm Calm - N/A   Clear
7:15 PM 28.4 °F 24.6 °F 23.0 °F 80% 29.78 in 10.0 mi NNW 3.5 mph - N/A   Clear
7:35 PM 28.4 °F 23.3 °F 24.8 °F 86% 29.78 in 10.0 mi SW 4.6 mph - N/A   Clear
7:55 PM 26.6 °F 22.6 °F 23.0 °F 86% 29.78 in 10.0 mi SSE 3.5 mph - N/A   Clear
8:15 PM 24.8 °F 20.5 °F 23.0 °F 93% 29.79 in 10.0 mi SSE 3.5 mph - N/A   Clear
8:35 PM 23.0 °F 18.4 °F 19.4 °F 86% 29.80 in 10.0 mi ESE 3.5 mph - N/A   Clear
8:55 PM 21.2 °F - 17.6 °F 86% 29.80 in 10.0 mi Calm Calm - N/A   Clear
9:15 PM 21.2 °F - 17.6 °F 86% 29.80 in 10.0 mi Calm Calm - N/A   Clear
9:35 PM 19.4 °F 14.3 °F 17.6 °F 93% 29.79 in 10.0 mi SE 3.5 mph - N/A   Clear
9:55 PM 19.4 °F - 17.6 °F 93% 29.78 in 10.0 mi Calm Calm - N/A   Clear
10:15 PM 19.4 °F 11.5 °F 17.6 °F 93% 29.78 in 10.0 mi SE 5.8 mph - N/A   Clear
10:35 PM 19.4 °F - 17.6 °F 93% 29.77 in 10.0 mi Calm Calm - N/A   Clear
10:55 PM 19.4 °F - 17.6 °F 93% 29.77 in 10.0 mi Calm Calm - N/A   Clear
11:15 PM 19.4 °F 12.8 °F 17.6 °F 93% 29.76 in 10.0 mi SSE 4.6 mph - N/A   Clear
11:35 PM 23.0 °F - 19.4 °F 86% 29.76 in 10.0 mi Calm Calm - N/A   Clear
11:55 PM 19.4 °F - 17.6 °F 93% 29.75 in 10.0 mi Calm Calm - N/A   Clear